Date String (YYYY-MM-DD hh:mm:ss) UTC,Instrument flags,absolute air pressure of the measurement (hPa),sample flow rate (lpm),inlet stack bypass flow (lpm),air temperature of the measurement (°C),ambient temperature measured by the external sensor (°C),aerosol sample conditioner tube jacket temperature (°C),OPC LED temperature (°C),internal box temperature (°C),relative humidity of the measurement (%),span deviation,mass concentration of particles derived from Lorenz-Mie calculation of OPC scattering (μg/m³),mass concentration of particles derived from Lorenz-Mie calculation of OPC scattering (μg/m³),mass concentration of particles derived from Lorenz-Mie calculation of OPC scattering (μg/m³)
DateTimeUTC,F1_M11,P_M11,Q1_M11,Q2_M11,T1_M11,T2_M11,T3_M11,T4_M11,T5_M11,U1_M11,ZSPAN_M11,X0_M11,X2_M11,X1_M11
2024-05-13 02:00:00,SystemResetWarning,0827.6,5.00,000.00,025.7,025.3,000.0,033.7,027.5,029.8,0000.0,0008.85,0003.50,0002.81
2024-05-13 02:01:00,SystemResetWarning,0827.7,4.99,000.00,025.7,025.4,000.0,033.7,027.6,029.8,0000.0,0008.46,0003.60,0002.89
2024-05-13 02:02:00,SystemResetWarning,0827.7,4.99,000.00,025.8,025.4,000.0,033.7,027.6,030.0,0000.0,0008.46,0003.67,0002.95
2024-05-13 02:03:00,SystemResetWarning,0827.7,5.00,000.00,025.8,025.4,000.0,033.8,027.6,030.0,0000.0,0007.92,0003.70,0002.98
2024-05-13 02:04:00,SystemResetWarning,0827.7,5.00,000.00,025.8,025.1,000.0,033.8,027.5,030.1,0000.0,0007.98,0003.71,0003.00
2024-05-13 02:05:00,SystemResetWarning,0827.7,5.01,000.00,025.5,022.9,000.0,033.9,026.4,030.5,0000.0,0007.96,0003.73,0003.03
2024-05-13 02:06:00,SystemResetWarning,0827.7,5.00,000.00,025.1,021.9,000.0,033.9,025.7,031.4,0000.0,0008.03,0003.73,0003.07
2024-05-13 02:07:00,SystemResetWarning,0827.7,5.01,000.00,024.9,022.1,000.0,033.8,025.7,032.0,0000.0,0008.07,0003.74,0003.09
2024-05-13 02:08:00,SystemResetWarning,0827.7,5.00,000.00,024.9,022.5,000.0,033.6,026.0,032.2,0000.0,0007.87,0003.78,0003.10
2024-05-13 02:09:00,SystemResetWarning,0827.7,5.00,000.00,024.9,022.9,000.0,033.5,026.3,032.1,0000.0,0007.87,0003.80,0003.10
2024-05-13 02:10:00,SystemResetWarning,0827.7,5.00,000.00,024.9,023.3,000.0,033.4,026.4,031.9,0000.0,0007.52,0003.78,0003.11
2024-05-13 02:11:00,SystemResetWarning,0827.6,5.01,000.00,024.9,023.6,000.0,033.4,026.6,031.9,0000.0,0007.37,0003.79,0003.11
2024-05-13 02:12:00,SystemResetWarning,0827.6,5.00,000.00,025.0,023.8,000.0,033.4,026.7,032.0,0000.0,0007.24,0003.77,0003.11
2024-05-13 02:13:00,SystemResetWarning,0827.5,5.00,000.00,025.0,024.0,000.0,033.4,026.8,031.7,0000.0,0007.11,0003.74,0003.11
2024-05-13 02:14:00,SystemResetWarning,0827.6,4.99,000.00,025.1,024.2,000.0,033.3,026.8,031.4,0000.0,0006.98,0003.70,0003.10
2024-05-13 02:15:00,SystemResetWarning,0827.7,5.00,000.00,025.1,024.4,000.0,033.4,026.9,031.3,0000.0,0007.09,0003.74,0003.10
2024-05-13 02:16:00,SystemResetWarning,0827.7,5.00,000.00,025.2,024.5,000.0,033.4,027.0,031.5,0000.0,0007.56,0003.76,0003.10
2024-05-13 02:17:00,SystemResetWarning,0827.7,5.00,000.00,025.2,024.6,000.0,033.4,027.0,031.8,0000.0,0007.56,0003.77,0003.09
2024-05-13 02:18:00,SystemResetWarning,0827.7,5.01,000.00,025.3,024.7,000.0,033.4,027.1,031.8,0000.0,0007.46,0003.75,0003.10
2024-05-13 02:19:00,SystemResetWarning,0827.7,5.01,000.00,025.3,024.8,000.0,033.4,027.1,031.8,0000.0,0007.49,0003.76,0003.11
2024-05-13 02:20:00,SystemResetWarning,0827.7,4.99,000.00,025.4,024.9,000.0,033.5,027.2,031.7,0000.0,0007.52,0003.78,0003.12
2024-05-13 02:21:00,SystemResetWarning,0827.7,4.99,000.00,025.4,024.9,000.0,033.5,027.2,031.6,0000.0,0007.67,0003.84,0003.12
2024-05-13 02:22:00,SystemResetWarning,0827.7,4.99,000.00,025.4,025.0,000.0,033.5,027.3,031.4,0000.0,0007.67,0003.84,0003.13
2024-05-13 02:23:00,SystemResetWarning,0827.8,5.00,000.00,025.5,025.1,000.0,033.5,027.4,031.3,0000.0,0007.87,0003.89,0003.14
2024-05-13 02:24:00,SystemResetWarning,0827.7,5.01,000.00,025.5,025.1,000.0,033.6,027.4,031.4,0000.0,0007.93,0003.90,0003.16
2024-05-13 02:25:00,SystemResetWarning,0827.7,5.00,000.00,025.6,025.2,000.0,033.6,027.4,031.3,0000.0,0007.95,0003.93,0003.18
2024-05-13 02:26:00,SystemResetWarning,0827.7,4.98,000.00,025.6,024.7,000.0,033.7,027.1,031.4,0000.0,0007.93,0003.91,0003.20
2024-05-13 02:27:00,SystemResetWarning,0827.7,5.00,000.00,025.2,022.3,000.0,033.7,025.9,032.1,0000.0,0007.50,0003.88,0003.22
2024-05-13 02:28:00,SystemResetWarning,0827.7,5.00,000.00,024.7,020.8,000.0,033.7,025.1,033.3,0000.0,0007.44,0003.87,0003.23
2024-05-13 02:29:00,SystemResetWarning,0827.7,5.00,000.00,024.4,020.8,000.0,033.6,024.9,033.9,0000.0,0008.39,0003.88,0003.24
2024-05-13 02:30:00,SystemResetWarning,0827.8,5.01,000.00,024.2,021.2,000.0,033.4,025.1,034.1,0000.0,0008.63,0003.92,0003.24
2024-05-13 02:31:00,SystemResetWarning,0827.7,4.99,000.00,024.3,021.7,000.0,033.2,025.5,034.1,0000.0,0008.81,0003.94,0003.25
2024-05-13 02:32:00,SystemResetWarning,0827.8,5.00,000.00,024.3,022.2,000.0,033.1,025.7,034.1,0000.0,0008.71,0003.89,0003.25
2024-05-13 02:33:00,SystemResetWarning,0827.7,5.00,000.00,024.3,022.6,000.0,033.0,025.9,034.1,0000.0,0008.87,0003.91,0003.26
2024-05-13 02:34:00,SystemResetWarning,0827.7,4.99,000.00,024.4,023.0,000.0,032.9,026.0,033.7,0000.0,0009.67,0003.93,0003.27
2024-05-13 02:35:00,SystemResetWarning,0827.7,4.99,000.00,024.4,023.3,000.0,032.9,026.2,033.4,0000.0,0009.52,0003.88,0003.26
2024-05-13 02:36:00,SystemResetWarning,0827.7,5.00,000.00,024.5,023.5,000.0,032.9,026.3,033.4,0000.0,0009.64,0003.89,0003.26
2024-05-13 02:37:00,SystemResetWarning,0827.8,5.00,000.00,024.6,023.7,000.0,032.9,026.4,033.3,0000.0,0009.66,0003.92,0003.26
2024-05-13 02:38:00,SystemResetWarning,0827.8,5.01,000.00,024.6,023.9,000.0,032.9,026.5,033.4,0000.0,0009.75,0003.92,0003.26
2024-05-13 02:39:00,SystemResetWarning,0827.8,5.00,000.00,024.7,024.0,000.0,032.9,026.6,033.0,0000.0,0009.79,0003.93,0003.25
2024-05-13 02:40:00,SystemResetWarning,0827.7,5.00,000.00,024.7,024.2,000.0,032.9,026.6,032.7,0000.0,0009.33,0003.93,0003.24
2024-05-13 02:41:00,SystemResetWarning,0827.7,4.99,000.00,024.8,024.3,000.0,032.9,026.7,032.9,0000.0,0008.71,0003.89,0003.24
2024-05-13 02:42:00,SystemResetWarning,0827.7,4.99,000.00,024.9,024.4,000.0,032.9,026.7,032.7,0000.0,0008.51,0003.87,0003.24
2024-05-13 02:43:00,SystemResetWarning,0827.7,4.99,000.00,024.9,024.5,000.0,033.0,026.8,032.3,0000.0,0008.54,0003.88,0003.24
2024-05-13 02:44:00,SystemResetWarning,0827.7,5.01,000.00,025.0,024.5,000.0,033.0,026.8,032.3,0000.0,0008.48,0003.87,0003.25
2024-05-13 02:45:00,SystemResetWarning,0827.7,5.01,000.00,025.0,024.6,000.0,033.0,026.9,032.0,0000.0,0007.81,0003.88,0003.26
2024-05-13 02:46:00,SystemResetWarning,0827.7,4.99,000.00,025.1,024.7,000.0,033.1,027.0,031.9,0000.0,0007.60,0003.89,0003.27
2024-05-13 02:47:00,SystemResetWarning,0827.7,4.99,000.00,025.1,024.7,000.0,033.1,027.0,031.1,0000.0,0007.56,0003.89,0003.28
2024-05-13 02:48:00,SystemResetWarning,0827.7,5.02,000.00,025.2,024.8,000.0,033.2,027.0,030.7,0000.0,0007.51,0003.87,0003.26
2024-05-13 02:49:00,SystemResetWarning,0827.8,5.01,000.00,025.2,024.9,000.0,033.2,027.1,030.5,0000.0,0007.36,0003.84,0003.26
2024-05-13 02:50:00,SystemResetWarning,0827.7,4.99,000.00,025.3,024.9,000.0,033.2,027.1,030.6,0000.0,0007.55,0003.84,0003.26
2024-05-13 02:51:00,SystemResetWarning,0827.7,4.99,000.00,025.3,025.0,000.0,033.3,027.2,030.6,0000.0,0007.83,0003.84,0003.27
2024-05-13 02:52:00,SystemResetWarning,0827.7,5.01,000.00,025.4,025.0,000.0,033.3,027.2,030.4,0000.0,0007.69,0003.81,0003.26
2024-05-13 02:53:00,SystemResetWarning,0827.7,5.01,000.00,025.4,025.0,000.0,033.4,027.2,030.2,0000.0,0007.62,0003.81,0003.26
2024-05-13 02:54:00,SystemResetWarning,0827.7,5.01,000.00,025.4,025.1,000.0,033.4,027.3,030.3,0000.0,0007.67,0003.82,0003.25
2024-05-13 02:55:00,SystemResetWarning,0827.7,4.99,000.00,025.4,024.2,000.0,033.5,026.8,030.5,0000.0,0007.65,0003.81,0003.24
2024-05-13 02:56:00,SystemResetWarning,0827.5,5.00,000.00,025.0,022.1,000.0,033.5,025.8,031.3,0000.0,0007.61,0003.76,0003.22
2024-05-13 02:57:00,SystemResetWarning,0827.4,5.02,000.00,024.7,021.6,000.0,033.5,025.4,032.1,0000.0,0007.81,0003.78,0003.23
2024-05-13 02:58:00,SystemResetWarning,0827.4,4.99,000.00,024.5,021.9,000.0,033.3,025.5,032.3,0000.0,0007.78,0003.78,0003.22
2024-05-13 02:59:00,SystemResetWarning,0827.5,5.00,000.00,024.5,022.3,000.0,033.2,025.7,032.4,0000.0,0007.78,0003.78,0003.23
